Location: ?
(35.2180°N, 139.6392°E)
Time: 09:48:17
(UTC+00:00)

Thor Agena Rocket - Pass Details

Date: 05 August 2024
Orbit: 756 x 805 km, 99.1° (Epoch: 15 September)

Event Time Altitude Azimuth Distance (km) Brightness Sun altitude
Rises 18:44:58 0° 13° (NNE) 3,226 7.4 -13.5°
Reaches altitude 10° 18:47:17 10° 13° (NNE) 2,293 6.6 -13.1°
Maximum altitude 18:52:20 87° 284° (WNW) 762 3.4 -12.2°
Drops below altitude 10° 18:57:20 10° 196° (SSW) 2,275 5.5 -11.3°
Enters shadow 18:58:29 - 196° (SSW) 2,736 5.9 -11.1°
